Find Starlink 36584

NORAD ID: 67547 Int'l Des: 2026-014 Owner: SPXS Country: US Constellation: starlink operational
LEOCIRCULARRETROGRADE

現在のビュー

3D地球を読み込み中...

Starlink 36584について

説明を読み込み中...

次回通過

Passes for default location (London). Set your location on the main map for personalized predictions.

高度履歴

Loading altitude history...

軌道要素

1 67547U 26014R 26146.57410399 .00015182 00000-0 47145-3 0 9990
2 67547 97.2873 33.6651 0001896 93.7129 266.4331 15.33457194 20724
Epoch: May 26, 2026 • Age: 9 hours

現在のステータス

高度 468.0 km
速度 7.63 km/s
衛星直下点 3.87°N, 5.6°W
打ち上げ日 Jan 22, 2026
運用期間 0.3 years
タイプ internet

技術仕様

分類 Payload
質量 575.00 kg
乾燥質量 530.00 kg
総質量 575.00 kg
長さ 0.30 m
直径 4.10 m
スパン 29.00 m
形状 Box + pan
製造者 SPXS
バスタイプ Starlink V2MO
フェーズステータス In Orbit
所有者/国 SPXS/US

Most Searched